Погода в Подсвилье

Беларусь     55°08′50″N   27°57′56″E
темп.,
°C
ветер,
м/с
пор.,
м/с
влажн.,
%
обл.,
%
осадки,
мм/ч
давл.,
гПа
погр.,
м
19 апреля, пн
пн1900:00+7всв34735 0.0 102246
03:00+6всв35745 0.0 102270
06:00+4в34865 0.0 102248
09:00+9в23775 0.0 1022365
12:00+13всв565537 0.1 10211751
15:00+12вюв4758100 0.1 1022946
18:00+12всв465615 0.0 10211267
21:00+9всв497692 0.1 1021266
20 апреля, вт
вт2000:00+6всв379398 0.0 1021182
03:00+7всв3688100 0.0 1020286
06:00+6всв3688100 0.0 1019281
09:00+7всв4682100 0.1 1018856
12:00+6в4588100 0.5 1017804
15:00+7всв3475100 0.6 1016851
18:00+7всв4571100 0.1 10141002
21:00+5всв3584100 0.2 1013423
21 апреля, ср
ср2100:00+5ссв2289100 0.0 1012200
03:00+4ссв2391100 0.1 1010227
06:00+4ссз2490100 0.1 1008257
09:00+5сз3482100 0.1 1008497
12:00+6зсз4571100 0.1 10071050
15:00+6зсз466898 0.1 1007843
18:00+8з356479 0.0 1007778
21:00+6ю3374100 0.0 100739
22 апреля, чт
чт2200:00+4ююз37835 0.0 1007108
03:00+4ююз498371 0.0 1008143
06:00+4ююз369391 0.0 1008111
09:00+9ююз477267 0.0 1008415
12:00+12юз576255 0.6 10091421
15:00+11з686891 1.9 10101318
18:00+10юз57575 0.1 10111445
21:00+6ю477499 0.1 1012104
23 апреля, пт
пт2300:00+6ююз3779100 0.0 1011167
03:00+4з1390100 1.6 1011343
06:00+3ю3792100 1.3 1010300
09:00+5ююз4681100 1.3 1010407
12:00+7ююз5759100 0.1 10091487
15:00+6юз7976100 1.3 10081086
18:00+6з677196 1.1 10081051
21:00+3зюз348821 1.2 100969